Terminal Aerodrome Forecast
Issued by NWS Houston/Galveston TX

Home | Current Version | Previous Version | Text Only | Print | Product List | Glossary On
Versions: 1 2 3 4 5 6 7 8 9 10 11 12 13 14 15 16 17 18 19 20 21 22 23 24 25 26 27 28 29 30 31 32 33 34 35 36 37 38 39 40 41 42 43 44 45 46 47 48 49 50
777
FTUS44 KHGX 240529
TAFHOU
TAF
KHOU 240529Z 2406/2506 00000KT P6SM SKC
      TEMPO 2410/2412 MIFG
     FM241200 10005KT P6SM SCT020
     FM241800 12007KT P6SM VCSH SCT045
     FM242300 13007KT P6SM SCT250=

USA.gov is the U.S. government's official web portal to all federal, state and local government web resources and services.